Location: Calvatone
(45.1167°N, 10.4333°E)
Time: 15:18:33
(UTC+00:00)

Gblst 52 Del rocket - Pass Details

Date: 28 January 2023
Orbit: 805 x 1364 km, 51.5° (Epoch: 30 March)

Event Time Altitude Azimuth Distance (km) Brightness Sun altitude
Rises 18:13:57 0° 225° (SW) 3,413 8.2 -20.2°
Reaches altitude 10° 18:16:31 10° 221° (SW) 2,435 7.2 -20.6°
Maximum altitude 18:22:00 60° 143° (SE) 924 4.2 -21.6°
Enters shadow 18:23:12 48° 95° (E) 1,046 4.2 -21.8°
